This is the latest recevied weather packets stored in our database for station/object VA7IS. If no packets are shown the sender has not sent any weather packets the latest 10 day(s).
| Time | Temp. | Humidity | Pressure | Rain* | Wind** | Luminosity | Snow |
|---|---|---|---|---|---|---|---|
| 1777848604 | 27.22° C | 33% | 1010.1 hPa | 0 mm | - | - | - |
| 1777848003 | 26.67° C | 34% | 1010.2 hPa | 0 mm | - | - | - |
| 1777842904 | 25.56° C | 37% | 1011.1 hPa | 0 mm | - | - | - |
| 1777840503 | 24.44° C | 41% | 1011.6 hPa | 0 mm | - | - | - |
| 1777837804 | 24.44° C | 46% | 1012.2 hPa | 0 mm | - | - | - |
| 1777830904 | 21.67° C | 48% | 1013.1 hPa | 0 mm | - | - | - |
| 1777828804 | 21.11° C | 45% | 1013.2 hPa | 0 mm | - | - | - |
| 1777827604 | 20.56° C | 47% | 1013.4 hPa | 0 mm | - | - | - |
| 1777827003 | 20.56° C | 52% | 1013.5 hPa | 0 mm | - | - | - |
| 1777825203 | 18.33° C | 55% | 1013.7 hPa | 0 mm | - | - | - |
| 1777823104 | 17.22° C | 56% | 1013.9 hPa | 0 mm | - | - | - |
| 1777819504 | 13.89° C | 48% | 1013.9 hPa | 0 mm | - | - | - |
| 1777817704 | 13.33° C | 55% | 1013.9 hPa | 0 mm | - | - | - |
| 1777817403 | 13.33° C | 56% | 1013.8 hPa | 0 mm | - | - | - |
| 1777816204 | 12.78° C | 58% | 1013.9 hPa | 0 mm | - | - | - |
| 1777814703 | 12.78° C | 58% | 1013.8 hPa | 0 mm | - | - | - |
| 1777814403 | 12.78° C | 58% | 1013.7 hPa | 0 mm | - | - | - |
| 1777809304 | 13.89° C | 57% | 1013.5 hPa | 0 mm | - | - | - |
| 1777808704 | 13.89° C | 58% | 1013.5 hPa | 0 mm | - | - | - |
| 1777808404 | 13.89° C | 58% | 1013.5 hPa | 0 mm | - | - | - |
| 1777806303 | 13.89° C | 58% | 1013.7 hPa | 0 mm | - | - | - |
| 1777802703 | 14.44° C | 57% | 1013.7 hPa | 0 mm | - | - | - |
| 1777802105 | 14.44° C | 58% | 1013.7 hPa | 0 mm | - | - | - |
| 1777800905 | 14.44° C | 58% | 1013.7 hPa | 0 mm | - | - | - |
| 1777798504 | 14.44° C | 57% | 1013.6 hPa | 0 mm | - | - | - |
* Rain latest hour (hover to see other rain measurements)
** Current wind speed in m/s (hover to see current wind gust speed)